Regional Weather Roundup
Issued by NWS

Home | Current Version | Previous Version | Text Only | Print | Product List | Glossary Off
Versions: 1 2 3 4 5 6 7 8 9 10 11 12 13 14 15 16 17 18 19 20 21 22 23 24 25 26 27 28 29 30 31 32 33 34 35 36 37 38 39 40 41 42 43 44 45 46 47 48 49 50

939
ASUS44 KMEG 250000
RWRTN
TENNESSEE HOURLY STATE WEATHER ROUNDUP
NATIONAL WEATHER SERVICE MEMPHIS TN
700 PM CDT SUN JUL 24 2016

TNZ002-004-019-021-049-052-054-088>092-250100-
WEST TENNESSEE

CITY           SKY/WX    TMP DP  RH WIND       PRES   REMARKS
MEMPHIS INTL   CLOUDY    88  74  63 SW3       29.96R HX  96
NWS MEMPHIS      N/A     90 N/A N/A MISG        N/A
JACKSON        CLOUDY    89  77  67 CALM      29.97R HX 101
DYERSBURG      SUNNY     90  75  62 MISG      29.95S HX 100
$$

TNZ008-025-027-028-033-062-065-066-250100-
NORTH MIDDLE TENNESSEE

CITY           SKY/WX    TMP DP  RH WIND       PRES   REMARKS
NASHVILLE      PTSUNNY   91  73  55 NE5       29.98R HX  99
CLARKSVILLE    CLOUDY    90  75  61 SE5       29.96S HX 100
CROSSVILLE     CLOUDY    81  74  79 CALM      30.09R
$$

TNZ061-075-076-078-094-096-097-250100-
SOUTH MIDDLE TENNESSEE

CITY           SKY/WX    TMP DP  RH WIND       PRES   REMARKS
$$

TNZ017-018-042-046-047-250100-
NORTHEAST TENNESSEE

CITY           SKY/WX    TMP DP  RH WIND       PRES   REMARKS
TRI CITIES     MOCLDY    85  69  58 NW14      30.05R
$$

TNZ012-013-036-069-073-074-250100-
CENTRAL EAST TENNESSEE

CITY           SKY/WX    TMP DP  RH WIND       PRES   REMARKS
KNOXVILLE      CLOUDY    91  68  46 W7        29.99S HX  95
OAK RIDGE      CLEAR     91  69  48 CALM      30.02R HX  96
$$

TNZ083-085-099-250100-
SOUTHEAST TENNESSEE

CITY           SKY/WX    TMP DP  RH WIND       PRES   REMARKS
CHATTANOOGA    MOCLDY    84  73  69 N3        30.01R HX  90
$$

SKY/WX REPORTED AS FAIR MEANS FEW OR NO CLOUDS BELOW
12 THOUSAND FEET.





USA.gov is the U.S. government's official web portal to all federal, state and local government web resources and services.